* Astronomy

Members Login
Username 
 
Password 
    Remember Me  
Post Info TOPIC: Asteroid 2012 VJ5


L

Posts: 131433
Date:
Asteroid 2012 VJ5
Permalink  
 


Orbital elements:
2012 VJ5                                                 Earth MOID = 0.0529 AU
Epoch 2012 Sept. 30.0 TT = JDT 2456200.5                MPC
M 345.58242              (2000.0)            P               Q
n   0.58616796     Peri.  170.95952     +0.85505344     -0.49815118
a   1.4140171      Node   219.99006     +0.46065059     +0.85721378
e   0.2622098      Incl.   12.94601     +0.23808538     +0.13049880
P   1.68           H   25.5           G   0.15           U   7

MPEC 2012 - V18



__________________
Page 1 of 1  sorted by
 
Quick Reply

Please log in to post quick replies.



Create your own FREE Forum
Report Abuse
Powered by ActiveBoard